Regional Weather Roundup
Issued by NWS

Home | Current Version | Previous Version | Text Only | Print | Product List | Glossary Off
Versions: 1 2 3 4 5 6 7 8 9 10 11 12 13 14 15 16 17 18 19 20 21 22 23 24 25 26 27 28 29 30 31 32 33 34 35 36 37 38 39 40 41 42 43 44 45 46 47 48 49 50

000
ASUS45 KPSR 180200
RWRAZ

PRELIMINARY ARIZONA REGIONAL HOURLY WEATHER ROUNDUP
NATIONAL WEATHER SERVICE PHOENIX AZ
700 PM MST WED DEC 17 2014

NOTE: FAIR INDICATES FEW OR NO CLOUDS BELOW 12,000 FEET WITH NO
SIGNIFICANT WEATHER AND/OR OBSTRUCTIONS TO VISIBILITY.

AZZ001>003-036-180300-
NORTHWEST ARIZONA

CITY           SKY/WX    TMP DP  RH WIND       PRES   REMARKS
KINGMAN        CLOUDY    43  40  89 S5        30.07R
$$

AZZ004>008-015-016-018-180300-
NORTH CENTRAL ARIZONA

CITY           SKY/WX    TMP DP  RH WIND       PRES   REMARKS
GRAND CANYON   LGT SNOW  32  31  96 SW7       30.06R FOG     WCI  26
PRESCOTT       MOCLDY    38  32  79 S5        30.08R WCI  34
FLAGSTAFF      NOT AVBL
PAYSON         LGT RAIN  37  37 100 VRB5      30.12R WCI  34
PAGE           PTCLDY    39  34  82 CALM      30.04R
$$

AZZ009>014-017-180300-
NORTHEAST ARIZONA

CITY           SKY/WX    TMP DP  RH WIND       PRES   REMARKS
WINSLOW        NOT AVBL
SAINT JOHNS    PTCLDY    36  30  79 SW12      30.06R WCI  28
WINDOW ROCK    PTCLDY    34  27  75 W5        30.05R WCI  30
SHOW LOW       CLOUDY    32  28  86 S10       30.11R WCI  24
$$

AZZ023-180300-
GREATER PHOENIX AREA

CITY           SKY/WX    TMP DP  RH WIND       PRES   REMARKS
PHOENIX        CLOUDY    58  45  62 SW5       30.08R
BUCKEYE        PTCLDY    52  52 100 SE3       30.10R
GLENDALE       MOCLDY    52  46  82 VRB5      30.10R
DEER VALLEY    CLOUDY    51  46  83 NE5       30.09R
SCOTTSDALE     PTCLDY    53  44  71 NE3       30.10R
MESA-GATEWAY   CLOUDY    54  48  82 CALM      30.12R
$$

AZZ027-028-180300-
SOUTHWEST MARICOPA COUNTY AND PINAL COUNTY

CITY           SKY/WX    TMP DP  RH WIND       PRES   REMARKS
CASA GRANDE    MOCLDY    54  48  82 CALM      30.10S
GILA BEND      MOCLDY    55  52  88 E2        30.10R
$$

AZZ503-504-507>509-180300-
SOUTHEAST ARIZONA

CITY           SKY/WX    TMP DP  RH WIND       PRES   REMARKS
TUCSON         LGT RAIN  50  48  93 NE3       30.13R
DAVIS-MONTHAN  MOCLDY    49  49  99 W3        30.12R
RYAN FIELD       N/A     52  52 100 CALM      30.13R
NOGALES        CLOUDY    49  43  80 S5        30.12R
SIERRA VISTA   MOCLDY    46  39  76 CALM      30.10S
SAFFORD        CLOUDY    47  44  90 NW7       30.11R
$$

AZZ020-021-025-026-031-180300-
SOUTHWEST ARIZONA

CITY           SKY/WX    TMP DP  RH WIND       PRES   REMARKS
YUMA           NOT AVBL
$$

CAZ031-033-041-043-047-048-061-180300-
SOUTHERN CALIFORNIA

CITY           SKY/WX    TMP DP  RH WIND       PRES   REMARKS
DOWNTOWN L.A.  CLOUDY    59  43  55 CALM      30.06S
L.A. AIRPORT   CLOUDY    60  44  55 N3        30.06S
SAN DIEGO      CLOUDY    61  44  53 NW6       30.13R
BURBANK        CLOUDY    58  42  55 N3        30.06S
ONTARIO        MOCLDY    56  42  59 W7        30.08R
RIVERSIDE      CLOUDY    57  43  59 W8        30.08R
PALM SPRINGS   CLOUDY    57  46  66 CALM      30.08R
EL CENTRO NAS  MOCLDY    54  51  90 N6        30.06R FOG
IMPERIAL       PTCLDY    57  53  86 N3        30.06R
BLYTHE         MOCLDY    54  51  90 E7        30.06R
$$

NVZ020-UTZ003-180300-
SOUTHERN NEVADA-UTAH

CITY           SKY/WX    TMP DP  RH WIND       PRES   REMARKS
LAS VEGAS      NOT AVBL
SALT LAKE CITY MOCLDY    33  29  85 W6        30.01R WCI  28
$$

NMZ009-TXZ055-180300-
NEW MEXICO-WEST TEXAS

CITY           SKY/WX    TMP DP  RH WIND       PRES   REMARKS
ALBUQUERQUE    CLOUDY    38  36  92 SE7       30.05R WCI  33
EL PASO        PTCLDY    52  35  52 NW13      30.09R
$$


........................KEY........................
SKY/WX - SKY CONDITION/WEATHER
TMP    - TEMPERATURE IN FAHRENHEIT
DP     - DEW POINT IN FAHRENHEIT
RH     - RELATIVE HUMIDITY IN PERCENT
WIND   - DIRECTION AND SPEED IN MILES PER HOUR (MPH)
VRB    - VARIABLE WIND DIRECTION
PRES   - MEAN SEA LEVEL PRESSURE IN INCHES OF MERCURY
         F - FALLING PRESSURE   R - RISING PRESSURE
         S - STEADY PRESSURE
VSB    - VISIBILITY IN MILES
HX     - HEAT INDEX IN FAHRENHEIT
WCI    - WIND CHILL INDEX IN FAHRENHEIT
TC     - TEMPERATURE IN CELSIUS WHICH IS ALSO KNOWN AS
         TEMPERATURE IN CENTIGRADE
AFB    - AIR FORCE BASE
         LUKE AFB IS LUKE AIR FORCE BASE
         DAVIS-MONTHAN IS DAVIS-MONTHAN AIR FORCE BASE
NAS    - NAVAL AIR STATION
         EL CENTRO NAS IS EL CENTRO NAVAL AIR STATION
N/A    - NOT AVAILABLE


USA.gov is the U.S. government's official web portal to all federal, state and local government web resources and services.